This is the latest recevied weather packets stored in our database for station/object KI5RAB. If no packets are shown the sender has not sent any weather packets the latest 10 day(s).
| Time | Temp. | Humidity | Pressure | Rain* | Wind** | Luminosity | Snow |
|---|---|---|---|---|---|---|---|
| 1788228355 | 32.78° C | 55% | 1016.9 hPa | 0 mm | - | 0 W/m² | - |
| 1788228049 | 32.78° C | 55% | 1017.1 hPa | 0 mm | - | 0 W/m² | - |
| 1788227744 | 32.78° C | 55% | 1016.7 hPa | 0 mm | - | 0 W/m² | - |
| 1788227439 | 32.78° C | 54% | 1016.9 hPa | 0 mm | - | 0 W/m² | - |
| 1788227135 | 32.78° C | 54% | 1016.8 hPa | 0 mm | - | 0 W/m² | - |
| 1788226844 | 33.33° C | 53% | 1016.8 hPa | 0 mm | - | 0 W/m² | - |
| 1788226526 | 33.33° C | 52% | 1016.7 hPa | 0 mm | - | 0 W/m² | - |
| 1788226222 | 33.33° C | 51% | 1016.6 hPa | 0 mm | - | 0 W/m² | - |
| 1788225921 | 33.33° C | 50% | 1016.5 hPa | 0 mm | - | 0 W/m² | - |
| 1788225617 | 33.33° C | 47% | 1016.5 hPa | 0 mm | - | 0 W/m² | - |
| 1788225313 | 33.33° C | 47% | 1016.3 hPa | 0 mm | - | 0 W/m² | - |
| 1788225011 | 33.33° C | 47% | 1016.2 hPa | 0 mm | - | 0 W/m² | - |
| 1788224706 | 33.89° C | 48% | 1016.3 hPa | 0 mm | - | 1 W/m² | - |
| 1788224405 | 33.89° C | 48% | 1016.3 hPa | 0 mm | - | 2 W/m² | - |
| 1788224100 | 33.89° C | 47% | 1016.3 hPa | 0 mm | - | 4 W/m² | - |
| 1788223795 | 33.89° C | 47% | 1016.3 hPa | 0 mm | - | 6 W/m² | - |
| 1788223495 | 33.89° C | 46% | 1016.2 hPa | 0 mm | - | 9 W/m² | - |
| 1788223190 | 33.89° C | 46% | 1016.2 hPa | 0 mm | - | 13 W/m² | - |
| 1788222885 | 34.44° C | 46% | 1016.1 hPa | 0 mm | - | 16 W/m² | - |
| 1788222583 | 34.44° C | 45% | 1016.4 hPa | 0 mm | - | 18 W/m² | - |
| 1788222283 | 34.44° C | 45% | 1016.1 hPa | 0 mm | - | 19 W/m² | - |
| 1788221977 | 35° C | 45% | 1016 hPa | 0 mm | - | 22 W/m² | - |
| 1788221673 | 35° C | 44% | 1016.2 hPa | 0 mm | - | 25 W/m² | - |
| 1788221368 | 35° C | 44% | 1016.1 hPa | 0 mm | - | 30 W/m² | - |
| 1788221063 | 35.56° C | 43% | 1015.9 hPa | 0 mm | - | 37 W/m² | - |
* Rain latest hour (hover to see other rain measurements)
** Current wind speed in m/s (hover to see current wind gust speed)